Location: Newark
(34.1333°N, 7.9667°W)
Time: 07:46:40
(UTC+00:00)

QB50P2 - Visible Passes

Search period start: 10 June 2023 00:00
Search period end: 20 June 2023 00:00
Orbit: 581 x 595 km, 98.0° (Epoch: 09 June)

Date Brightness Start Highest point End Pass type
(mag) Time Alt. Az. Time Alt. Az. Time Alt. Az.
10 Jun ? 02:39:08 10° N 02:42:37 50° NW 02:42:37 50° NW visible
11 Jun ? 01:13:38 10° ENE 01:13:45 10° ENE 01:13:45 10° ENE visible
11 Jun ? 02:46:44 10° N 02:50:15 42° NW 02:50:15 42° NW visible
12 Jun ? 01:20:23 10° ENE 01:21:22 13° ENE 01:21:22 13° ENE visible
12 Jun ? 02:54:23 10° N 02:57:52 35° WNW 02:57:52 35° WNW visible
13 Jun ? 01:27:24 10° NE 01:28:58 16° ENE 01:28:58 16° ENE visible
13 Jun ? 03:02:02 10° N 03:05:29 29° WNW 03:05:29 29° WNW visible
14 Jun ? 01:34:33 10° NE 01:36:34 19° ENE 01:36:34 19° ENE visible
14 Jun ? 03:09:45 10° NNW 03:13:05 24° WNW 03:13:05 24° WNW visible
15 Jun ? 01:41:48 10° NE 01:44:10 23° ENE 01:44:10 23° ENE visible
15 Jun ? 03:17:30 10° NNW 03:20:36 20° WNW 03:20:40 20° WNW visible
16 Jun ? 01:49:05 10° NNE 01:51:45 28° ENE 01:51:45 28° ENE visible
16 Jun ? 03:25:20 10° NNW 03:28:01 17° WNW 03:28:15 17° WNW visible
17 Jun ? 01:56:25 10° NNE 01:59:19 33° ENE 01:59:19 33° ENE visible
17 Jun ? 03:33:17 10° NW 03:35:26 14° WNW 03:35:49 14° WNW visible
18 Jun ? 02:03:47 10° NNE 02:06:53 40° ENE 02:06:53 40° ENE visible
18 Jun ? 03:41:29 10° NW 03:42:50 11° WNW 03:43:23 11° WNW visible
19 Jun ? 02:11:10 10° NNE 02:14:26 48° NE 02:14:26 48° NE visible
